OSCAR 7 (AO-7) 1 07530U 74089B 26095.55267403 -.00000053 00000+0 -42925-4 0 9992 2 07530 101.9951 108.0318 0011869 269.5872 267.7564 12.53696922351414 PHASE 3B (AO-10) 1 14129U 83058B 26094.55753074 .00000190 00000+0 00000+0 0 9996 2 14129 25.9042 231.8754 6037310 95.3177 331.8918 2.05870704293979 UOSAT 2 (UO-11) 1 14781U 84021B 26095.39160441 .00002586 00000+0 26970-3 0 9993 2 14781 97.7997 61.8183 0009139 69.2476 290.9720 14.90607872246289 LUSAT (LO-19) 1 20442U 90005G 26095.48248007 .00000207 00000+0 90773-4 0 9999 2 20442 98.8911 115.2662 0012543 62.3066 297.9389 14.34100037891975 EYESAT A (AO-27) 1 22825U 93061C 26095.41837267 .00000170 00000+0 81610-4 0 9995 2 22825 98.6930 162.8415 0007532 319.7882 40.2743 14.30922620696592 ITAMSAT (IO-26) 1 22826U 93061D 26095.41941377 .00000181 00000+0 85207-4 0 9992 2 22826 98.6878 162.7528 0007828 301.0777 58.9637 14.31347539696907 RADIO ROSTO (RS15) 1 23439U 94085A 26095.47962530 -.00000053 00000+0 -29449-3 0 9995 2 23439 64.8169 60.8011 0153691 17.0679 343.5334 11.27583811287704 JAS-2 (FO-29) 1 24278U 96046B 26095.48420000 .00000009 00000+0 48500-4 0 9997 2 24278 98.5334 314.2741 0348876 285.1551 71.1256 13.53270607463337 TECHSAT 1B (GO-32) 1 25397U 98043D 26095.50300942 .00000113 00000+0 68814-4 0 9990 2 25397 99.0053 86.4378 0002302 76.3138 283.8296 14.24413826440983 ISS (ZARYA) 1 25544U 98067A 26095.55331949 .00008543 00000+0 16420-3 0 9996 2 25544 51.6328 299.5432 0006351 274.8255 85.2008 15.48786980560492 PCSAT (NO-44) 1 26931U 01043C 26095.37968119 .00000262 00000+0 12872-3 0 9997 2 26931 67.0499 72.5804 0006818 264.5518 95.4807 14.31926921280021 SAUDISAT 1C (SO-50) 1 27607U 02058C 26095.12210001 .00001899 00000+0 24059-3 0 9995 2 27607 64.5552 355.0194 0075478 275.8009 83.4496 14.82889051253628 CUTE-1 (CO-55) 1 27844U 03031E 26095.46987272 .00000480 00000+0 22670-3 0 9990 2 27844 98.6770 104.9369 0010310 42.6071 317.5906 14.24289988181322 CUBESAT XI-IV (CO-57) 1 27848U 03031J 26095.00030604 .00000375 00000+0 18383-3 0 9991 2 27848 98.6802 104.2449 0010479 60.3929 299.8292 14.23580899180962 MOZHAETS 4 (RS22) 1 27939U 03042A 26095.54969852 .00002237 00000+0 35346-3 0 9996 2 27939 98.3455 277.8623 0012126 134.8142 297.7779 14.73336810204859 CUBESAT XI-V 1 28895U 05043F 26095.35546362 .00002609 00000+0 41900-3 0 9993 2 28895 98.2887 249.4930 0015301 78.6033 281.6891 14.72438139 91034 CUTE-1.7+APD II (CO-65) 1 32785U 08021C 26095.44448931 .00007217 00000+0 46332-3 0 9992 2 32785 97.8239 75.4104 0007198 278.0250 82.0161 15.08764042974224 SEEDS II (CO-66) 1 32791U 08021J 26095.47983811 .00023117 00000+0 78965-3 0 9997 2 32791 97.7528 90.0528 0003090 159.0761 201.0605 15.30307057976161 YUBILEINY (RS30) 1 32953U 08025A 26095.50717802 .00000051 00000+0 29215-3 0 9996 2 32953 82.5059 40.6393 0020425 108.0469 252.2838 12.43177086810669 KKS-1 (KISEKI) 1 33499U 09002H 26095.45581946 .00002452 00000+0 30890-3 0 9998 2 33499 98.1187 16.7603 0008265 156.3672 203.7922 14.82936115925414 SWISSCUBE 1 35932U 09051B 26095.23210999 .00001815 00000+0 36901-3 0 9990 2 35932 98.4078 1.8437 0008090 80.6523 279.5592 14.62337809878492 BEESAT-1 1 35933U 09051C 26095.47797122 .00001502 00000+0 31197-3 0 9990 2 35933 98.4008 1.8797 0006554 91.7010 268.4941 14.61599704878568 ITUPSAT1 1 35935U 09051E 26095.26841027 .00001364 00000+0 29225-3 0 9998 2 35935 98.4093 0.9348 0008679 102.1469 258.0703 14.60328443878099 XIWANG-1 (HOPE-1) 1 36122U 09072B 26095.51271881 -.00000104 00000+0 -15741-3 0 9994 2 36122 100.3967 50.5289 0008026 43.0316 317.1424 13.16437258783442 O/OREOS (USA 219) 1 37224U 10062C 26095.52658054 .00003963 00000+0 38168-3 0 9993 2 37224 71.9710 244.8841 0015704 211.2288 148.7951 14.93448062105795 JUGNU 1 37839U 11058B 26095.16955251 .00000570 00000+0 15802-3 0 9991 2 37839 19.9620 32.0253 0018437 350.5168 40.3194 14.13753627748688 SRMSAT 1 37841U 11058D 26095.49484993 .00000471 00000+0 11205-3 0 9993 2 37841 19.9707 139.4576 0011903 123.4189 11.6801 14.11557864747530 STRAND-1 1 39090U 13009E 26095.43943823 .00000496 00000+0 18111-3 0 9995 2 39090 98.3906 277.4685 0009855 89.2698 270.9618 14.37119391686615 ZACUBE-1 (TSHEPISOSAT) 1 39417U 13066B 26095.47215956 .00006119 00000+0 47895-3 0 9993 2 39417 97.8145 57.4269 0044997 133.1453 227.3547 15.00600064669829 GOMX-1 1 39430U 13066Q 26095.25034567 .00002030 00000+0 31199-3 0 9999 2 39430 97.6535 300.2983 0128048 312.2182 46.8213 14.69206231659203 CUBEBUG-2 (LO-74) 1 39440U 13066AA 26095.30272076 .00005449 00000+0 51027-3 0 9994 2 39440 97.8853 44.0303 0056639 269.2046 90.2684 14.93272372666113 FUNCUBE-1 (AO-73) 1 39444U 13066AE 26095.18031921 .00011812 00000+0 74891-3 0 9991 2 39444 97.8239 65.1851 0039093 92.0712 268.4993 15.08440482668653 UWE-3 1 39446U 13066AG 26095.14421561 .00005905 00000+0 51308-3 0 9996 2 39446 97.8633 50.7911 0048973 201.3754 158.5422 14.96461292666650 UNISAT-6 1 40012U 14033C 26095.30744690 .00004798 00000+0 52166-3 0 9993 2 40012 97.7782 249.3613 0044147 309.7110 50.0218 14.87831808635321 DUCHIFAT-1 1 40021U 14033M 26095.46472477 .00078740 00000+0 12275-2 0 9995 2 40021 98.0570 145.1163 0003114 341.5445 18.5693 15.53584468644425 QB50P1 1 40025U 14033R 26095.49367432 .00012098 00000+0 61258-3 0 9996 2 40025 98.1004 101.6006 0010541 111.3857 248.8501 15.17121057642006 LILACSAT-2 1 40908U 15049K 26095.52588903 .00022947 00000+0 42302-3 0 9999 2 40908 97.4751 129.6949 0008515 145.0580 215.1231 15.49109447584497 FOX-1A (AO-85) 1 40967U 15058D 26095.49868572 .00003104 00000+0 28605-3 0 9997 2 40967 64.7742 144.7987 0128306 85.1473 276.4275 14.90546963102739 CAS-2T & KS-1Q 1 41847U 16066G 26095.44372638 .00001290 00000+0 19026-3 0 9994 2 41847 98.3848 171.9969 0342070 350.4800 9.0014 14.44541498494290 RADFXSAT (FOX-1B) 1 43017U 17073E 26095.34673847 .00010494 00000+0 47040-3 0 9992 2 43017 97.4805 324.0850 0152910 219.4130 139.5897 15.11452822454387 DIWATA-2B 1 43678U 18084H 26095.53824259 .00003536 00000+0 28819-3 0 9996 2 43678 98.1037 288.6786 0013848 48.7319 311.5094 15.00111082405325 ES'HAIL 2 1 43700U 18090A 26095.32544493 .00000145 00000+0 00000+0 0 9996 2 43700 0.0184 215.8796 0001268 177.5569 303.1744 1.00269866 26945 FOX-1CLIFF (AO-95) 1 43770U 18099N 26095.41855545 .00015111 00000+0 60414-3 0 9993 2 43770 97.4450 155.9966 0007773 236.8990 123.1502 15.25176328402127 ITASAT 1 43786U 18099AE 26095.40735891 .00009565 00000+0 47081-3 0 9991 2 43786 97.4107 148.3931 0011363 242.1899 117.8184 15.18141027401865 JY1SAT (JO-97) 1 43803U 18099AX 26095.42146271 .00022773 00000+0 75160-3 0 9996 2 43803 97.4195 158.1083 0006816 158.3978 201.7552 15.31401113402483 UWE-4 1 43880U 18111E 26095.23545195 .00038350 00000+0 90054-3 0 9990 2 43880 97.5857 20.5234 0006878 210.6830 149.4015 15.41908824399525 TIANYAN 01 1 44881U 19093C 26095.47874052 .00001891 00000+0 22000-3 0 9991 2 44881 97.7567 169.4770 0012870 331.9639 28.0882 14.86404565340619 RS-44 & BREEZE-KM R/B 1 44909U 19096E 26095.29704869 .00000015 00000+0 23344-4 0 9993 2 44909 82.5256 28.1355 0216766 315.0635 43.3096 12.79747790293025 SALSAT 1 46495U 20068K 26095.51475441 .00009868 00000+0 35563-3 0 9992 2 46495 97.8868 94.2178 0009618 186.7469 173.3642 15.28736769304256 XW-3 (CAS-9) 1 50466U 21131B 26095.50973978 .00000979 00000+0 31634-3 0 9993 2 50466 98.4952 188.3093 0003282 331.8827 28.2184 14.41288457224646 GREENCUBE (IO-117) 1 53109U 22080E 26094.56827725 -.00000003 00000+0 00000+0 0 9995 2 53109 70.1528 323.8593 0009014 305.8170 54.1652 6.42583190 87336 UMKA 1 (RS40S) 1 57172U 23091G 26095.43499002 .00009052 00000+0 42210-3 0 9997 2 57172 97.5119 154.4307 0013219 20.7403 339.4365 15.20020538152953 CUBESX-HSE 3 (RS42S) 1 57178U 23091N 26095.46121006 .00017132 00000+0 60071-3 0 9995 2 57178 97.5149 160.2096 0010557 357.8990 2.2204 15.29466777153304 MONITOR-3 (RS58S) 1 57180U 23091Q 26095.39957821 .00014333 00000+0 55131-3 0 9993 2 57180 97.5144 158.3688 0011692 3.9322 356.2006 15.26445512153185 MONITOR-4 (RS57S) 1 57182U 23091S 26095.44870901 .00014410 00000+0 55269-3 0 9992 2 57182 97.5138 158.3848 0011606 4.3518 355.7819 15.26539409153191 MONITOR-2 (RS39S) 1 57184U 23091U 26095.50045991 .00007110 00000+0 34980-3 0 9990 2 57184 97.5141 154.2626 0011465 14.1210 346.0342 15.18260123152926 SVYATOBOR 1 (RS60S) 1 57187U 23091X 26095.46962750 .00011897 00000+0 47283-3 0 9996 2 57187 97.5150 158.9297 0009140 357.7921 2.3275 15.25423532153220 VIZARD-METEO (RS38S) 1 57189U 23091Z 26095.45578850 .00020529 00000+0 62872-3 0 9994 2 57189 97.5142 163.5937 0006446 339.1506 20.9473 15.33820866153535 NANOZOND 1 (RS49S) 1 57190U 23091AA 26095.50100938 .00625881 16147-3 17757-2 0 9996 2 57190 97.4951 178.2006 0007337 260.9774 99.0670 15.93327729154513 POLYTECH-UNIVERSE 3 (R*) 1 57191U 23091AB 26095.47123087 .00006501 00000+0 31787-3 0 9992 2 57191 97.5116 153.7398 0016238 28.3459 331.8655 15.18452772152912 UTMN 2 (RS27S) 1 57203U 23091AP 26095.51959664 .00016573 00000+0 56633-3 0 9996 2 57203 97.5142 161.8127 0007443 346.3749 13.7289 15.30339353153427 KUZGTU 1 (RS47S) 1 57217U 23091AV 26095.45737982 .00015905 00000+0 57866-3 0 9998 2 57217 97.5124 159.2666 0010845 1.4523 358.6746 15.28271348153267 SONATE-2 1 59112U 24043Q 26095.34469281 .00047567 00000+0 74180-3 0 9991 2 59112 97.5445 241.6071 0007726 111.8816 248.3259 15.53678713116561 MESAT1 1 60209U 24125G 26095.53677155 .00052080 00000+0 73432-3 0 9998 2 60209 97.2402 311.7107 0012712 124.6704 235.5751 15.56357634 98246 OOV-CUBE (TUBSAT-30) 1 60240U 24128F 26095.45249674 .00002993 00000+0 23402-3 0 9998 2 60240 61.9933 119.1263 0052275 117.8694 242.7706 15.02425780 95180 COLIBRI-S (RS67S) 1 61746U 24199M 26095.51404037 .00026604 00000+0 56773-3 0 9993 2 61746 97.3102 328.8249 0009279 173.3072 186.8303 15.44813245126188 HORS 3 (RS81S) 1 61753U 24199U 26095.51486646 .00040346 00000+0 70899-3 0 9991 2 61753 97.3075 330.1322 0007370 172.8754 187.2604 15.50369260126284 HORS 4 (RS82S) 1 61754U 24199V 26095.46593059 .00048018 00000+0 74918-3 0 9993 2 61754 97.3043 330.8928 0007086 168.4319 191.7099 15.53668716126336 HORIZON (RS59S) 1 61757U 24199Y 26095.43874435 .00272938 00000+0 14214-2 0 9995 2 61757 97.2975 335.6010 0006572 145.9724 214.1967 15.80168950126638 ARCTICSAT 1 (RS74S) 1 61762U 24199AD 26095.42210000 .00165842 00000+0 12199-2 0 9997 2 61762 97.3010 334.8760 0006800 144.4874 215.6844 15.72554143126580 SIT-2086 1 61764U 24199AF 26095.47780519 .00028280 00000+0 52024-3 0 9997 2 61764 97.3064 330.7848 0007165 162.0246 198.1260 15.49137043123165 HYPERVIEW 1G (RS66S) 1 61772U 24199AP 26095.50623463 .00090959 00000+0 10235-2 0 9993 2 61772 97.3018 332.3456 0008380 167.5794 192.5673 15.62240254123287 ALTAIR (RS65S) 1 61779U 24199AW 26095.48902800 .00013992 00000+0 40455-3 0 9992 2 61779 97.3130 325.3505 0012521 200.0072 160.0683 15.35661424125953 ASRTU-1 (AO-123) 1 61781U 24199AY 26095.48560456 .00010083 00000+0 30203-3 0 9990 2 61781 97.3103 324.8250 0013393 202.9681 157.0965 15.34619813122772 TUSUR GO (RS78S) 1 61782U 24199AZ 26095.43148006 .00331659 00000+0 15535-2 0 9994 2 61782 97.2922 334.6343 0006917 156.4167 203.7420 15.82333907123438 SAMSAT-IONOSPHERE (RS7*) 1 61784U 24199BB 26095.51587027 .00046739 00000+0 77592-3 0 9999 2 61784 97.3058 329.9773 0010052 177.4248 182.7058 15.51916085126271 RTU MIREA 1 (RS51S) 1 61785U 24199BC 26095.41336539 .00057992 00000+0 88573-3 0 9993 2 61785 97.3055 330.4024 0010135 175.6495 184.4849 15.54183436123140 TEVEL2-4 1 63213U 25052D 26094.96024818 .00022675 00000+0 73221-3 0 9997 2 63213 97.3985 351.3418 0003566 46.7949 313.3590 15.32120609 58895 TEVEL2-5 1 63214U 25052E 26095.43061585 .00024901 00000+0 80641-3 0 9991 2 63214 97.3979 351.7782 0003526 46.0445 314.1087 15.32008857 58965 TEVEL2-6 1 63215U 25052F 26095.24519453 .00024751 00000+0 80278-3 0 9992 2 63215 97.3982 351.5785 0003591 45.4541 314.6993 15.31959995 58938 TEVEL2-1 1 63217U 25052H 26095.44698236 .00024896 00000+0 81864-3 0 9995 2 63217 97.3955 351.4849 0004087 53.3737 306.7879 15.31515515 58959 TEVEL2-3 1 63218U 25052J 26095.44389381 .00024922 00000+0 81842-3 0 9990 2 63218 97.3958 351.4958 0004128 54.0043 306.1581 15.31557154 58957 TEVEL2-2 1 63219U 25052K 26095.44758706 .00024765 00000+0 81426-3 0 9995 2 63219 97.3956 351.4866 0004079 53.7400 306.4218 15.31519914 58954 TEVEL2-9 1 63237U 25052AD 26094.94328454 .00021003 00000+0 73068-3 0 9997 2 63237 97.4021 350.5057 0007819 54.2343 305.9623 15.29701759 58824 TEVEL2-7 1 63238U 25052AE 26095.23318365 .00021619 00000+0 75714-3 0 9994 2 63238 97.4020 350.7381 0007953 53.7009 306.4964 15.29477036 58864 TEVEL2-8 1 63239U 25052AF 26095.24057536 .00021953 00000+0 76924-3 0 9991 2 63239 97.4020 350.7250 0007948 54.4340 305.7640 15.29456427 58864 HADES-ICM 1 63492U 25052BN 26095.16836670 .00274628 00000+0 25045-2 0 9993 2 63492 97.3880 356.7473 0006118 76.3003 283.8939 15.67014218 59271 INNOSAT 16 (RS92S7) 1 64878U 25155C 26095.49861108 .00009523 00000+0 38781-3 0 9998 2 64878 97.4513 62.9328 0012652 83.5988 276.6690 15.24627877 69595 GEOSCAN 6 (RS92S6) 1 64879U 25155D 26095.49360578 .00014411 00000+0 51748-3 0 9994 2 64879 97.4509 63.8712 0010141 79.0635 281.1745 15.28727710 69658 GEOSCAN 1 (RS92S1) 1 64880U 25155E 26095.52153133 .00016740 00000+0 59181-3 0 9993 2 64880 97.4506 63.9905 0010082 79.3079 280.9296 15.29206504 69664 239ALFEROV (RS61S) 1 64881U 25155F 26095.51873664 .00019991 00000+0 66918-3 0 9998 2 64881 97.4511 64.3294 0009785 79.3445 280.8897 15.30947182 69686 GEOSCAN 2 (RS92S2) 1 64890U 25155Q 26095.52862308 .00016564 00000+0 58046-3 0 9998 2 64890 97.4505 64.1200 0009219 69.2371 290.9856 15.29504560 69675 GEOSCAN 5 (RS92S5) 1 64891U 25155R 26095.52307920 .00021031 00000+0 69672-3 0 9995 2 64891 97.4504 64.4430 0008703 85.0636 275.1598 15.31281974 69694 GEOSCAN 4 (RS92S4) 1 64892U 25155S 26095.51356505 .00021306 00000+0 70325-3 0 9990 2 64892 97.4507 64.4636 0008759 85.5275 274.6966 15.31397142 69699 GEOSCAN 3 (RS92S3) 1 64893U 25155T 26095.46668267 .00026248 00000+0 82509-3 0 9993 2 64893 97.4497 64.6620 0008523 87.3064 272.9154 15.32924548 69707 INNOSAT 3 (RS92S0) 1 64894U 25155U 26095.46948395 .00048173 00000+0 12445-2 0 9999 2 64894 97.4461 65.5271 0008396 88.6860 271.5347 15.38940167 69763 KNACKSAT-2 1 67683U 98067XZ 26094.79014270 .00049990 00000+0 75544-3 0 9999 2 67683 51.6331 301.9471 0010720 281.6024 78.3763 15.54148205 8848